Content
SEND FEEDBACK

Daily
Averages
Monthly
Summary
United States of America

ELLICOTT CITY, MARYLAND


Home > North America > United States > Maryland
Elevation: 360 feet     Latitude: 39 20N     Longitude: 076 52W

WEATHER
 
SELECT A DAY
Number of Records: 190,819;   Date Range: 1/1/95 - 7/20/14
 
SHARE

PRINT THIS DATA

[ ← Previous Day ]
WEATHER ALMANAC - JANUARY 31, 2013
[ Next Day → ]
[ °C ]   °F
Weather ElementAverageHighLow
Temperature45.6 °F62.1 °F (2:54 am)34 °F (9:54 pm)
Dewpoint23.3 °F57.9 °F (1:54 am)9 °F (9:54 pm)
Humidity43.2 %90 % (1:54 am)30 % (6:54 pm)
Barometer29.59 in29.91 in (10:54 pm)29.18 in (3:54 am)

Weather ElementAverage
Weather ElementTotal
Precipitation0.55 in
Heating Degree Days17 (Base 65)
Averaged from 23 records on January 31, 2013
WEATHER CONDITIONS BREAKOUT
WIND DIRECTION BREAKOUT
WEATHER BY HOUR - JANUARY 31, 2013
[ °C ]   °F
Local TimeTemperatureDewpointHumidityBarometerVisibilityWind DirectionWind SpeedGust SpeedPrecipitationEventsConditions
1:54 AM61.0 °F57.9 °F90 %29.20 inNorth0.37 in
2:54 AM62.1 °F55.9 °F80 %29.20 inNorth0.15 in
3:54 AM61.0 °F54.0 °F78 %29.18 inNorth0.01 in
4:54 AM57.0 °F41.0 °F55 %29.20 inNorth0.02 in
5:54 AM52.0 °F33.1 °F49 %29.29 inNorth
6:54 AM50.0 °F30.0 °F46 %29.37 inNorth
7:54 AM46.9 °F26.1 °F44 %29.46 inNorth
8:54 AM46.0 °F19.0 °F34 %29.53 inNorth
9:54 AM46.0 °F19.0 °F34 %29.57 inNorth
10:54 AM46.9 °F21.9 °F37 %29.62 inNorth
11:54 AM46.0 °F17.1 °F31 %29.61 inNorth
12:54 PM46.9 °F18.0 °F32 %29.65 inNorth
1:54 PM46.9 °F19.9 °F34 %29.67 inNorth
2:54 PM44.1 °F18.0 °F35 %29.62 inNorth
3:54 PM42.1 °F12.9 °F31 %29.68 inNorth
4:54 PM41.0 °F17.1 °F38 %29.77 inNorth
5:54 PM39.9 °F14.0 °F35 %29.77 inNorth
6:54 PM39.0 °F10.0 °F30 %29.82 inNorth
7:54 PM37.0 °F10.0 °F33 %29.86 inNorth
8:54 PM35.1 °F10.9 °F37 %29.89 inNorth
9:54 PM34.0 °F9.0 °F35 %29.89 inNorth
10:54 PM34.0 °F10.0 °F37 %29.91 inNorth
11:54 PM34.0 °F10.9 °F38 %29.91 inNorth
Hourly data recorded from KDMH, located miles away from Ellicott City, Maryland







STORIES FROM OUR PARTNERS